Location: Grand Rapids
(42.9630°N, 85.6680°W)
Time: 08:57:27
(UTC-04:00)

A-11 Canister half - Pass Details

Date: 04 June 2024
Orbit: 1524 x 1684 km, 47.3° (Epoch: 15 May)

Event Time Altitude Azimuth Distance (km) Brightness Sun altitude
Rises 22:02:56 0° 274° (W) 4,674 12.5 -7.5°
Reaches altitude 10° 22:06:00 10° 277° (W) 3,698 12.0 -7.9°
Maximum altitude 22:15:18 68° 1° (N) 1,651 9.4 -9.1°
Drops below altitude 10° 22:24:52 10° 84° (E) 3,793 10.7 -10.4°
Sets 22:28:03 0° 87° (E) 4,800 11.2 -10.8°
